Saint Augustine, FL

12:30 PM EST on January 17, 2017 (GMT -0500)
Saint Augustine

Weather History for KSGJ - April, 2014

Change the Weather History Date:

Thursday, April 10, 2014

  Actual Average Record
Temperature  
Mean Temperature 63 °F -  
Max Temperature 73 °F 74 °F 87 °F (1999)
Min Temperature 53 °F 57 °F 43 °F (1985)
Degree Days  
Heating Degree Days 2    
Growing Degree Days 13 (Base 50)    
Moisture  
Dew Point 51 °F    
Average Humidity 66    
Maximum Humidity 86    
Minimum Humidity 38    
Precipitation  
Precipitation 0.00 in - - ()
Sea Level Pressure  
Sea Level Pressure 30.26 in    
Wind  
Wind Speed 4 mph (East)    
Max Wind Speed 14 mph    
Max Gust Speed -    
Visibility 10 miles    
Events      
Averages and records for this station are not official NWS values.
T = Trace of Precipitation, MM = Missing Value Source: NWS Daily Summary

Daily Weather History Graph

Daily Weather History Graph

Search for Another Location

Airport or City:

Trip Planner

Search our weather history database for the weather conditions in past years. The results will help you decide how hot, cold, wet, or windy it might be!

Date:

Astronomy

Apr. 10, 2014 Rise Set
Actual Time 7:04 AM EDT 7:49 PM EDT
Civil Twilight 6:39 AM EDT 8:13 PM EDT
Nautical Twilight 6:11 AM EDT 8:42 PM EDT
Astronomical Twilight 5:42 AM EDT 9:11 PM EDT
Moon 3:49 PM EDT (4/10) 4:07 AM EDT (4/10)
Length of Visible Light 13h 34m
Length of Day
12h 45m
Waxing Gibbous, 79% of the Moon is Illuminated
Apr 10
Waxing Gibbous
Apr 15
Full
Apr 22
Last Quarter
Apr 29
New
May 6
First Quarter

Hourly Weather History & Observations

Time (EDT) Temp. Dew Point Humidity Pressure Visibility Wind Dir Wind Speed Gust Speed Precip Events Conditions
12:58 AM 55.9 °F 51.1 °F 84% 30.19 in 10.0 mi Calm Calm - N/A   Clear
1:58 AM 54.0 °F 50.0 °F 86% 30.19 in 10.0 mi Calm Calm - N/A   Clear
2:58 AM 54.0 °F 50.0 °F 86% 30.19 in 10.0 mi Calm Calm - N/A   Clear
3:58 AM 53.1 °F 48.9 °F 86% 30.20 in 10.0 mi Calm Calm - N/A   Clear
4:58 AM 54.0 °F 50.0 °F 86% 30.21 in 10.0 mi West 3.5 mph - N/A   Clear
5:58 AM 54.0 °F 50.0 °F 86% 30.23 in 10.0 mi Calm Calm - N/A   Clear
6:58 AM 54.0 °F 50.0 °F 86% 30.26 in 10.0 mi Calm Calm - N/A   Clear
7:58 AM 55.0 °F 51.1 °F 86% 30.28 in 10.0 mi Calm Calm - N/A   Clear
8:58 AM 61.0 °F 53.1 °F 75% 30.30 in 10.0 mi Calm Calm - N/A   Clear
9:58 AM 66.9 °F 50.0 °F 54% 30.31 in 10.0 mi NE 3.5 mph - N/A   Clear
10:58 AM 70.0 °F 46.9 °F 44% 30.33 in 10.0 mi NE 4.6 mph - N/A   Clear
11:58 AM 72.0 °F 45.0 °F 38% 30.32 in 10.0 mi East 9.2 mph - N/A   Clear
12:58 PM 73.0 °F 48.0 °F 41% 30.31 in 10.0 mi ENE 10.4 mph - N/A   Clear
1:50 PM 71.6 °F 48.2 °F 43% 30.28 in 10.0 mi East 9.2 mph - N/A   Clear
2:50 PM 69.8 °F 48.2 °F 46% 30.27 in 10.0 mi East 9.2 mph - N/A   Clear
3:58 PM 73.0 °F 52.0 °F 48% 30.26 in 10.0 mi East 13.8 mph - N/A   Clear
4:58 PM 72.0 °F 48.0 °F 43% 30.25 in 10.0 mi East 13.8 mph - N/A   Clear
5:58 PM 71.1 °F 53.1 °F 53% 30.25 in 10.0 mi ESE 13.8 mph - N/A   Clear
6:58 PM 70.0 °F 54.0 °F 57% 30.25 in 10.0 mi ESE 11.5 mph - N/A   Clear
7:58 PM 66.9 °F 55.0 °F 66% 30.26 in 10.0 mi SE 8.1 mph - N/A   Clear
8:58 PM 66.0 °F 57.0 °F 73% 30.27 in 10.0 mi SE 8.1 mph - N/A   Clear
10:58 PM 64.0 °F 57.9 °F 80% 30.29 in 10.0 mi SE 5.8 mph - N/A   Clear
11:58 PM 64.0 °F 57.9 °F 80% 30.29 in 10.0 mi SSE 4.6 mph - N/A   Clear